AirNav   Phillips 66 Aviation Fuel
 
 1501 users online  

2A7 Department of Transportation Heliport
Columbus, Ohio, USA

GOING TO COLUMBUS?


FAA INFORMATION EFFECTIVE 08 NOVEMBER 2018

Location

FAA Identifier: 2A7
Lat/Long: 39-57-35.2300N / 083-02-38.6650W
39-57.587167N / 083-02.644417W
39.9597861 / -83.0440736
(estimated)
Elevation: 715 ft. / 218 m (estimated)
Variation: 05W (1985)
From city: 2 miles W of COLUMBUS, OH
Time zone: UTC -5 (UTC -4 during Daylight Saving Time)
Zip code: 43222

Heliport Operations

Heliport use: Open to the public
Activation date: 07/1979
Control tower: no
ARTCC: INDIANAPOLIS CENTER
FSS: DAYTON FLIGHT SERVICE STATION
NOTAMs facility: DAY (NOTAM-D service available)
Attendance: CONTINUOUS
Wind indicator: yes
Segmented circle: no

Heliport Communications

CTAF: 122.9
WX AWOS-3 at TZR (6 nm SW): 135.925 (614-878-1722)
WX ASOS at OSU (7 nm N): PHONE 614-451-2465
WX ASOS at CMH (7 nm E): 124.6 (614-338-4083)
WX AWOS-3 at LCK (10 nm SE): PHONE 614-492-2441
WX AWOS-3PT at UYF (19 nm W): 120.85 (740-852-2844)
WX AWOS-3 at DLZ (19 nm N): 119.025 (740-203-1878)

Nearby radio navigation aids

VOR radial/distance  VOR name  Freq  Var
APEr247/23.9APPLETON VORTAC116.7006W
XUBr358/(26.2)YELLOW BUD VOR112.5005W
SGHr083/37.6SPRINGFIELD VOR/DME113.2004W
BUDr184/(39.4)BUCKEYE VOR109.8005W

 
NDB name  Hdg/Dist  Freq  Var  ID
FULER139/9.851505WOS --- ...
PICKL303/10.737607WLC .-.. -.-.
BOUTN046/11.223005WBU -... ..-
COBBS002/13.125307WDD -.. -..
COURT HOUSE043/26.841406WCSS -.-. ... ...
CLARK COUNTY085/34.234104WCCJ -.-. -.-. .---

Heliport Services

Airframe service: NONE
Powerplant service: NONE
Bottled oxygen: NONE
Bulk oxygen: NONE

Runway Information

Helipad H1

Dimensions: 40 x 40 ft. / 12 x 12 m
Surface: asphalt, in good condition
Latitude: 39-57.587167N
Longitude: 083-02.644417W
Elevation: 715.0 ft.
Traffic pattern: leftleft
Markings: basic
Obstructions: 36 ft. trees, 249 ft. from runway, 6:1 slope to clear

Heliport Ownership and Management from official FAA records

Ownership: Publicly-owned
Owner: OHIO DEPT OF TRANSPORTATION
1600 W. BROAD ST.
COLUMBUS, OH 43223
Phone 614-752-0228
Manager: MARK P. FIELDS - ODOT AVIATION
2829 W. DUBLIN GRANVILLE ROAD
COLUMBUS, OH 43235
Phone 614-752-0228

Heliport Operational Statistics

Aircraft operations: 100/year *
100% transient general aviation
* for 12-month period ending 27 August 2016

Additional Remarks

E111-1 NO NGT HELI OPNS CONDD UNLESS TKOF//LNDG AREA & WIND INDCR LGTD & HELI IDENT BCN INSTLD. FIRE PROTECTION PRVDD IN ACCORDANCE WITH LCL FIRE CODE AND/OR AC 150/5390-1B.
PARKING AVBL OFF PAD.
FIRE EXTNGUISHER & PHONE AVBL 24 HRS IN SVC STN.
HELIPAD IS LOCATED IN A SECURED AREA. TO GAIN ACCESS AND FOR GATE OPERATION, OPERATORS NEED TO CALL 614-752-0228 PRIOR TO ARIVAL .
LEAST OBSTRUCTED APPROACH FROM THE SOUTH OVER EXPRESSWAY, LIGHT POLES AND TREES.

Instrument Procedures

There are no published instrument procedures at 2A7.

Some nearby airports with instrument procedures:

KTZR - Bolton Field Airport (6 nm SW)
KOSU - Ohio State University Airport (7 nm N)
KCMH - John Glenn Columbus International Airport (7 nm E)
KLCK - Rickenbacker International Airport (10 nm SE)
KUYF - Madison County Airport (19 nm W)
KDLZ - Delaware Municipal Airport - Jim Moore Field (19 nm N)
 
Loc | Ops | Rwys | IFR | FBO | Links
Com | Nav | Svcs | Stats | Notes


 
Area around 2A7 (Department of Transportation Heliport)
 
Road maps at: MapQuest Bing Google
 
Aerial photo
No photo
 
Sectional chart

 
Airport distance calculator
Flying to Department of Transportation Heliport? Find the distance to fly.

From to 2A7

Sunrise and sunset
Times for 16-Nov-2018
 Local
(UTC-5)
 Zulu
(UTC)
Morning civil twilight06:5011:50
Sunrise07:1912:19
Sunset17:1522:15
Evening civil twilight17:4422:44

Current date and time
Zulu (UTC)  16-Nov-2018 17:15:54
Local (UTC-5)  16-Nov-2018 12:15:54
 
METAR
KTZR 
6nm SW 
161650Z 23012KT 7SM OVC011 00/M01 A2998
KOSU 
8nm N 
161653Z 21014KT 7SM OVC012 01/M01 A2995 RMK AO2 SLP151 T00061011
KCMH 
8nm E 
161651Z 23013KT 7SM OVC014 01/M02 A2997 RMK AO2 SLP157 T00111017
KLCK 
10nm SE 
161655Z AUTO 23011G17KT 10SM OVC013 00/M01 A2998 RMK AO2 T00021013
KUYF 
19nm W 
161655Z AUTO 23014KT OVC009 00/00 A2995 RMK AO2 PWINO
KDLZ 
19nm N 
161656Z AUTO 22011G16KT 7SM OVC012 00/00 A2994 RMK AO2
TAF
KCMH 
8nm E 
161254Z 1613/1712 24012KT P6SM OVC008 FM161500 24012G22KT P6SM OVC012 FM170000 25008KT P6SM OVC012
KLCK 
10nm SE 
161255Z 1613/1712 24012KT P6SM OVC012 FM161500 24012G22KT P6SM OVC012 FM170000 25008KT P6SM OVC012
NOTAMs
Click for the latest NOTAMs
NOTAMs are issued by the DoD/FAA and will open in a separate window not controlled by AirNav.

 

 
 

Would you like to see your business listed on this page?

 If your business provides an interesting product or service to pilots, flight crews, aircraft, or users of the Department of Transportation Heliport, you should consider listing it here.  To start the listing process, click on the button below
 
Add a business
 

Other Pages about Department of Transportation Heliport

Update a link
 
Copyright © AirNav, LLC. All rights reserved. Privacy Policy  Contact